Theta_e
352 355 363 363 365 366 367 369 366 367 366 366 366 366 365 367 367 367 367 366 367 367 366 366 364 364 362 361 362 360 359 360 361 363 360 362 363 363 362 358 357 352 359
354 356 364 364 362 366 368 369 365 367 368 367 366 367 365 366 365 366 365 364 364 366 363 363 364 365 362 362 361 360 359 361 363 364 364 364 362 359 360 359 357 355 356
354 357 358 364 365 365 367 368 367 370 369 367 367 365 366 365 364 364 362 361 361 361 361 362 362 363 365 362 362 362 360 360 359 360 360 353 354 358 358 358 357 356 355
355 356 358 364 366 365 366 367 367 367 365 366 368 367 366 365 364 364 362 361 361 361 361 360 360 361 361 363 363 361 364 361 361 360 359 359 356 359 358 357 356 355 355
356 357 361 364 366 364 365 366 367 367 365 360 360 358 364 364 364 363 362 362 361 360 360 360 360 359 358 358 360 362 359 351 361 351 349 349 360 361 361 358 356 356 353
355 357 362 364 364 364 364 365 363 363 360 357 355 354 359 360 362 362 362 362 361 361 361 360 360 359 357 357 357 358 357 353 358 354 351 348 345 352 356 358 360 356 354
353 358 360 366 366 365 364 364 365 362 361 358 357 352 353 356 359 361 361 360 361 361 361 360 359 358 357 356 355 356 356 356 354 352 350 348 350 346 348 355 358 358 356
354 358 358 364 365 366 365 364 365 364 361 358 356 353 351 352 354 357 360 360 360 361 359 358 359 358 356 355 355 354 355 357 351 350 351 350 350 351 353 352 357 357 357
355 357 357 358 360 362 364 363 363 363 362 359 355 356 354 352 350 355 355 359 358 357 357 357 357 357 356 355 354 353 354 354 352 353 351 352 349 352 356 353 356 357 357
353 356 357 359 359 361 359 364 363 362 359 358 356 353 357 348 344 353 352 355 355 356 356 355 355 355 356 355 355 355 355 351 353 355 353 354 350 354 356 353 354 356 357
350 354 356 356 359 359 362 360 365 362 360 358 357 354 354 343 342 342 349 355 356 354 354 354 356 356 355 356 355 355 354 356 353 354 353 354 351 356 355 354 354 355 359
348 352 354 355 356 359 356 361 363 363 356 355 360 357 356 348 345 343 348 353 356 355 353 354 358 357 357 359 357 356 356 356 355 354 352 354 355 359 357 356 354 354 356
349 353 354 358 359 359 359 359 358 358 361 359 359 359 353 352 354 355 355 351 352 354 354 352 358 360 355 360 358 356 358 355 354 352 351 350 355 357 357 355 354 354 355
348 351 355 358 360 361 360 359 358 357 363 362 360 359 359 351 352 354 357 351 353 352 353 352 357 360 358 359 355 354 356 355 355 352 355 353 356 356 355 355 356 356 355
348 350 354 358 360 360 361 360 359 357 359 363 359 360 359 354 353 352 352 353 353 353 352 356 356 356 355 354 353 354 355 355 355 354 354 353 357 356 354 357 359 357 359
349 351 353 356 359 360 360 361 358 359 359 359 358 357 358 356 354 353 354 353 352 352 353 355 356 355 356 356 355 355 356 354 355 353 350 356 357 357 356 359 360 359 359
351 352 352 354 357 359 359 359 359 359 360 360 360 359 357 357 355 356 353 349 354 356 358 357 356 357 355 355 355 355 355 356 355 356 354 356 357 357 357 358 359 359 360
351 351 353 352 354 356 357 358 359 360 359 354 352 362 359 359 355 356 350 353 359 356 355 355 354 353 353 354 353 354 354 354 355 356 355 353 353 354 356 359 361 360 360
352 352 349 352 352 355 359 359 360 360 362 359 352 355 360 359 357 357 354 356 359 354 355 355 352 352 349 350 352 356 354 353 353 352 354 355 355 355 354 360 363 362 359
352 354 353 350 354 357 357 359 357 355 359 354 351 354 357 359 360 354 355 359 352 360 354 353 353 352 350 350 348 349 353 354 355 353 352 353 355 355 355 357 357 356 360
351 352 354 354 356 355 353 351 351 350 356 349 348 355 358 360 360 355 351 356 355 355 354 358 355 352 352 350 348 351 350 353 353 354 354 353 354 355 355 355 355 354 355
346 351 353 355 357 356 355 355 354 354 354 355 358 357 360 360 360 358 349 356 358 353 357 357 355 354 355 353 352 350 338 342 347 350 353 351 352 354 354 355 355 356 356
346 350 353 356 357 357 358 356 354 355 355 352 353 354 357 359 359 357 354 350 358 359 354 357 355 355 352 354 353 346 344 334 342 348 351 352 352 352 353 354 355 356 357
347 342 351 356 356 357 358 355 354 352 351 351 357 357 357 359 358 358 359 357 352 354 356 355 355 355 354 352 351 349 349 347 339 335 346 349 352 350 352 353 353 355 357
350 347 351 354 355 357 357 357 354 353 352 353 354 355 357 357 357 358 359 359 354 354 355 355 355 356 354 355 350 348 349 349 348 341 336 342 348 350 350 350 351 352 355
350 349 349 352 353 357 356 357 356 355 354 350 351 351 351 353 354 356 358 357 357 355 354 353 355 357 355 353 351 349 346 344 343 342 340 342 342 348 351 352 350 350 352
Wind_Speed
9 11 10 13 14 14 14 15 19 18 17 18 18 17 17 17 17 15 15 15 16 15 15 15 16 15 17 16 16 16 16 15 15 15 14 13 14 14 15 14 11 13 9
15 14 11 13 14 13 14 16 19 17 17 17 16 16 16 16 17 16 14 16 15 15 16 15 15 16 15 16 15 15 16 13 13 14 15 14 13 13 14 12 10 12 9
17 15 15 13 14 14 15 16 17 16 16 16 14 14 14 16 16 16 15 15 15 15 15 14 13 13 14 14 13 14 14 13 11 10 8 7 9 11 12 11 10 10 8
17 15 15 14 15 15 15 16 17 17 17 15 14 13 12 13 14 15 14 14 14 15 14 14 12 12 11 11 12 12 13 13 11 9 4 5 8 12 11 10 9 9 8
15 15 15 14 15 15 15 15 16 17 18 17 13 10 10 12 13 13 13 13 13 14 13 13 11 11 10 9 9 9 11 7 13 8 3 3 3 10 12 10 9 7 5
16 15 17 18 17 15 14 14 15 16 19 18 13 10 7 8 11 12 11 12 12 12 12 11 10 9 8 7 7 7 8 11 10 7 5 5 4 6 7 9 8 8 6
16 14 17 16 17 16 15 14 15 16 19 21 14 12 10 8 9 10 10 10 10 10 10 9 8 7 5 5 5 5 6 7 6 2 1 3 2 1 2 5 9 6 6
16 14 15 16 15 15 16 16 16 16 18 19 21 16 7 5 5 4 8 8 7 8 7 6 6 5 4 3 3 3 4 7 5 5 5 4 3 3 4 5 7 7 6
15 14 13 14 15 16 14 15 16 16 17 17 19 19 16 9 3 9 5 6 6 6 6 5 4 3 3 1 1 2 5 5 4 3 4 3 1 5 7 7 5 7 8
13 14 13 12 13 12 13 15 15 15 14 15 16 19 18 18 5 14 6 5 3 3 3 3 2 2 2 1 2 3 6 5 5 4 4 3 3 6 7 8 6 8 9
11 13 13 14 12 12 11 13 14 15 14 14 15 16 16 12 11 18 10 5 4 2 1 1 3 3 2 2 1 2 6 2 4 3 3 0 7 5 7 10 9 7 9
14 14 13 13 13 12 10 10 11 10 8 6 10 12 8 11 10 12 13 11 8 5 4 4 6 5 5 1 2 2 2 2 3 4 4 4 7 9 8 9 9 8 9
15 12 13 12 11 12 10 8 5 6 5 6 10 9 10 8 7 7 5 6 7 7 4 4 3 2 4 2 2 2 1 4 3 4 5 7 8 6 8 7 8 9 9
16 15 14 13 12 11 7 8 8 6 6 5 7 10 6 5 7 6 5 7 6 5 5 4 3 2 3 3 4 5 4 3 3 3 4 7 9 5 6 7 9 10 11
15 14 14 13 12 11 11 8 8 7 6 7 7 8 6 6 7 6 5 6 6 5 5 4 4 3 4 4 5 5 6 4 4 4 3 2 5 7 6 7 8 10 12
14 15 14 14 13 12 11 10 8 7 7 6 6 7 8 7 6 6 5 5 5 5 5 4 4 4 3 3 5 6 6 5 5 3 3 2 4 7 7 7 7 7 9
13 13 14 15 14 14 13 11 8 8 7 7 6 9 9 8 7 6 3 3 5 5 5 5 5 4 5 5 6 5 6 6 6 5 4 3 4 8 8 8 8 8 10
12 13 13 13 15 15 13 10 8 8 8 3 1 6 10 9 7 6 4 5 4 4 5 4 5 4 4 4 5 5 4 5 5 5 4 5 4 4 9 9 8 9 9
10 10 11 12 15 14 12 9 8 9 7 5 4 6 9 9 8 7 6 5 6 5 5 5 5 5 5 5 5 4 5 5 5 4 6 5 6 6 4 8 9 9 8
11 13 14 10 11 12 9 7 4 5 6 3 3 8 8 6 9 5 6 6 3 5 5 5 6 5 4 3 4 4 5 4 5 5 5 6 6 7 7 6 6 8 11
11 12 15 15 12 11 8 6 6 7 7 6 7 13 11 9 9 6 5 6 6 6 6 6 5 6 5 4 4 4 5 6 6 5 5 5 6 7 7 6 5 5 5
15 15 16 16 14 12 9 6 5 6 6 5 9 10 12 9 9 8 7 8 8 6 7 6 7 3 4 4 2 2 3 5 6 6 6 6 7 5 6 8 8 8 7
14 13 13 15 14 13 12 6 4 3 2 4 6 6 7 9 11 10 8 5 9 6 6 6 7 6 3 4 5 3 2 3 2 4 7 6 6 6 6 7 8 8 8
17 15 16 15 14 12 13 11 11 8 8 7 6 6 5 8 9 10 10 10 5 4 7 6 5 6 5 4 4 5 3 2 2 3 4 5 6 7 7 6 7 8 9
20 18 8 8 9 10 11 12 9 10 7 4 4 6 6 7 9 11 11 10 9 8 8 8 7 7 6 4 6 3 4 3 3 4 3 3 4 5 5 6 6 7 8
14 11 9 9 9 10 11 12 11 12 10 6 6 5 6 6 7 9 10 9 10 8 9 8 8 8 8 7 6 5 5 4 5 5 5 5 5 3 4 5 6 6 7
Wind_Direction
149 140 137 124 130 136 136 129 133 138 138 140 141 134 130 124 116 109 108 102 98 97 94 92 96 93 96 96 98 103 105 107 109 111 110 104 95 91 87 89 100 93 83
143 142 135 124 129 132 135 134 139 139 141 142 146 138 135 123 119 113 112 108 106 104 99 96 95 101 100 102 107 109 110 106 105 104 109 103 94 92 85 89 83 90 83
142 143 141 131 126 129 133 137 140 136 136 136 140 138 134 132 126 121 120 116 114 107 103 101 98 97 100 107 106 112 112 114 113 108 105 107 105 101 102 97 91 94 92
143 145 143 137 131 130 133 137 138 140 135 134 134 136 140 140 134 129 127 122 117 112 109 105 103 100 99 100 110 112 116 122 118 117 121 110 123 119 114 107 104 102 96
144 146 138 139 136 134 138 139 141 142 136 134 136 128 151 146 139 138 133 128 121 117 115 111 106 103 103 108 121 134 130 123 110 113 117 80 133 127 125 126 128 120 110
147 149 143 146 143 146 143 141 139 139 134 134 150 152 175 169 146 142 138 131 127 123 119 116 113 110 112 116 123 143 152 155 151 151 164 116 63 109 112 138 130 128 131
149 147 149 147 145 150 153 152 147 148 144 149 131 154 171 213 162 151 147 141 136 129 127 122 123 124 129 137 135 143 162 167 184 144 212 256 249 298 141 169 148 148 150
151 150 151 150 152 154 159 163 163 159 156 155 152 173 166 160 250 193 152 146 149 140 136 130 136 137 137 171 170 168 178 151 155 167 208 237 92 281 265 214 165 167 177
154 154 155 158 161 163 166 165 164 168 162 163 160 157 159 180 200 290 231 168 164 147 141 143 146 151 153 218 141 126 160 180 228 225 248 224 254 266 272 210 201 190 197
166 161 163 165 167 170 171 173 170 170 168 168 163 169 167 171 165 262 259 229 187 188 155 145 181 194 179 171 97 138 178 231 257 271 252 263 254 270 220 191 201 204 211
176 176 171 171 174 176 175 180 178 178 175 178 177 171 169 182 198 233 256 247 230 206 298 289 257 240 205 184 147 195 207 230 260 251 271 152 263 236 203 203 211 216 219
180 184 180 180 179 180 186 186 186 188 183 159 181 181 180 188 204 219 238 230 232 236 267 297 302 276 230 232 186 211 240 270 257 278 276 313 288 260 214 203 209 211 213
183 186 189 187 186 189 192 196 197 194 189 190 191 180 190 189 198 212 224 231 232 230 248 261 284 240 234 232 235 248 243 244 259 276 301 296 298 286 192 187 208 207 215
192 192 186 186 188 197 198 196 204 208 190 187 190 192 174 192 195 201 214 221 235 237 236 255 253 223 219 236 252 253 245 252 228 263 282 274 260 215 195 204 202 209 213
195 193 191 193 194 192 198 200 210 202 212 201 185 186 165 191 203 207 217 227 229 222 229 235 240 231 228 235 244 252 253 247 252 256 283 316 253 211 211 232 222 218 221
196 196 190 196 196 198 203 203 210 210 216 208 197 191 187 203 204 203 206 215 204 201 224 233 228 232 229 244 251 244 254 265 243 258 277 265 233 212 224 245 223 210 217
197 192 192 197 195 201 206 209 208 214 212 211 213 199 192 201 207 214 188 211 217 203 216 219 229 224 239 236 252 246 255 254 247 235 257 255 197 210 224 226 238 221 216
200 197 195 200 200 201 203 205 214 212 219 180 290 215 197 201 206 211 209 221 214 192 210 221 226 235 247 255 246 229 236 235 224 227 231 233 248 240 195 221 223 241 232
211 205 201 205 206 204 205 208 211 229 234 190 152 269 225 197 200 218 220 226 188 211 213 221 223 231 240 244 255 240 237 237 227 216 218 228 225 225 216 175 218 225 240
204 209 204 191 211 201 202 200 214 227 243 167 160 240 243 221 213 196 226 230 218 227 216 216 227 213 250 260 263 250 245 230 222 217 219 213 218 220 218 219 205 211 216
230 213 202 202 195 188 193 189 207 221 214 169 200 233 228 221 210 193 219 231 215 225 230 214 218 232 228 225 243 234 239 232 220 216 219 219 217 221 223 221 231 236 203
207 209 208 208 202 194 202 199 212 194 220 204 194 229 227 206 207 202 201 219 215 219 223 217 214 209 209 203 240 229 215 188 221 218 213 222 229 221 222 221 226 227 229
211 244 221 214 202 196 199 185 181 163 159 199 220 219 207 209 216 205 199 207 229 212 228 221 210 218 228 195 227 286 213 219 190 185 209 219 220 223 230 227 228 229 233
190 212 205 211 198 200 193 198 203 217 221 220 215 218 188 205 211 211 214 210 213 208 225 228 219 230 224 224 204 221 260 334 281 212 199 218 215 230 231 226 230 223 224
195 211 191 223 211 209 205 219 208 220 231 244 217 228 215 204 212 217 215 210 210 217 224 233 230 224 224 228 234 186 218 229 244 274 267 197 219 233 235 228 222 228 223
194 200 176 194 208 203 207 214 229 235 216 216 226 235 229 219 213 220 217 214 207 213 219 223 227 225 217 212 230 231 221 221 221 236 253 265 279 267 252 231 232 234 235